When you browse on this site, cookies collect data to enhance your experience and personalize the content and advertising you see.
Visit our Privacy Policy to learn more. By continuing to use the site, you agree to this use of cookies and data.
  • In Switzerland
  • List of Countries
  • For 7 days
  • Water Temperature
  • Satellite Maps
  • Weather Map
  • Weather Widgets
  • user-avatar
    Login

    Hourly Weather Sankt Polten

    Today, 24 May, Friday

    Time Temperature Precipitation Wind Pressure Humidity
    00:00 +10°C° 0 mm 1 mps 736 mmHg 83%
    01:00 +10°C° 0 mm 1 mps 736 mmHg 84%
    02:00 +10°C° 0 mm 1 mps 736 mmHg 86%
    03:00 +9°C° 0 mm 1 mps 736 mmHg 87%
    04:00 +9°C° 0 mm 1 mps 736 mmHg 88%
    05:00 +11°C° 0 mm 1 mps 736 mmHg 81%
    06:00 +13°C° 0 mm 1 mps 735 mmHg 75%
    07:00 +16°C° 0 mm 1 mps 735 mmHg 67%
    08:00 +18°C° 0 mm 1 mps 735 mmHg 62%
    09:00 +20°C° 0 mm 1 mps 735 mmHg 57%
    10:00 +21°C° 0 mm 1 mps 735 mmHg 52%
    11:00 +21°C° 0 mm 1 mps 734 mmHg 51%
    12:00 +21°C° 0 mm 2 mps 734 mmHg 50%
    13:00 +21°C° 0 mm 2 mps 734 mmHg 49%
    14:00 +22°C° 0 mm 1 mps 734 mmHg 50%
    15:00 +22°C° 0 mm 1 mps 733 mmHg 50%
    16:00 +22°C° 0 mm 1 mps 733 mmHg 51%
    17:00 +21°C° 0 mm 1 mps 733 mmHg 59%
    18:00 +17°C° 0 mm 0 mps 733 mmHg 66%
    19:00 +16°C° 0 mm 0 mps 733 mmHg 74%
    20:00 +14°C° 0 mm 0 mps 733 mmHg 77%
    21:00 +13°C° 0 mm 0 mps 733 mmHg 81%
    22:00 +13°C° 0 mm 1 mps 734 mmHg 84%
    23:00 +12°C° 0 mm 1 mps 734 mmHg 85%

    Tomorrow, 25 May, Saturday

    Time Temperature Precipitation Wind Pressure Humidity
    00:00 +12°C° 0 mm 1 mps 734 mmHg 86%
    01:00 +12°C° 0 mm 1 mps 734 mmHg 87%
    02:00 +12°C° 0 mm 1 mps 734 mmHg 88%
    03:00 +11°C° 0 mm 1 mps 733 mmHg 89%
    04:00 +11°C° 0 mm 1 mps 733 mmHg 89%
    05:00 +13°C° 0 mm 1 mps 734 mmHg 82%
    06:00 +15°C° 0 mm 1 mps 734 mmHg 76%
    07:00 +16°C° 0 mm 0 mps 734 mmHg 69%
    08:00 +18°C° 0 mm 0 mps 734 mmHg 62%
    09:00 +22°C° 0 mm 1 mps 734 mmHg 56%
    10:00 +24°C° 0 mm 1 mps 734 mmHg 50%
    11:00 +25°C° 0 mm 1 mps 734 mmHg 48%
    12:00 +26°C° 0 mm 1 mps 734 mmHg 45%
    13:00 +26°C° 0 mm 1 mps 734 mmHg 43%
    14:00 +26°C° 0 mm 1 mps 733 mmHg 45%
    15:00 +26°C° 0 mm 1 mps 733 mmHg 46%
    16:00 +25°C° 0 mm 1 mps 733 mmHg 48%
    17:00 +23°C° 0.2 mm 1 mps 733 mmHg 59%
    18:00 +21°C° 0.2 mm 1 mps 733 mmHg 70%
    19:00 +19°C° 0.2 mm 1 mps 732 mmHg 81%
    20:00 +18°C° 0.1 mm 1 mps 733 mmHg 84%
    21:00 +16°C° 0.1 mm 1 mps 733 mmHg 87%
    22:00 +16°C° 0.1 mm 1 mps 733 mmHg 90%
    23:00 +15°C° 0 mm 1 mps 733 mmHg 91%

    Day after tomorrow, 26 May, Sunday

    Time Temperature Precipitation Wind Pressure Humidity
    00:00 +14°C° 0 mm 1 mps 733 mmHg 92%
    01:00 +14°C° 0 mm 1 mps 733 mmHg 93%
    02:00 +14°C° 0 mm 1 mps 733 mmHg 94%
    03:00 +13°C° 0 mm 2 mps 733 mmHg 95%
    04:00 +13°C° 0 mm 2 mps 733 mmHg 96%
    05:00 +14°C° 0 mm 2 mps 733 mmHg 93%
    06:00 +15°C° 0 mm 2 mps 734 mmHg 91%
    07:00 +16°C° 0 mm 2 mps 734 mmHg 88%
    08:00 +17°C° 0 mm 3 mps 734 mmHg 81%
    09:00 +19°C° 0 mm 3 mps 734 mmHg 74%
    10:00 +20°C° 0 mm 3 mps 734 mmHg 67%
    11:00 +21°C° 0 mm 3 mps 734 mmHg 63%
    12:00 +22°C° 0 mm 3 mps 734 mmHg 59%
    13:00 +24°C° 0 mm 3 mps 734 mmHg 56%
    14:00 +24°C° 0 mm 3 mps 734 mmHg 56%
    15:00 +24°C° 0 mm 3 mps 733 mmHg 56%
    16:00 +24°C° 0 mm 2 mps 733 mmHg 55%
    17:00 +23°C° 0 mm 2 mps 733 mmHg 63%
    18:00 +21°C° 0 mm 1 mps 733 mmHg 71%
    19:00 +20°C° 0 mm 1 mps 733 mmHg 79%
    20:00 +18°C° 0 mm 1 mps 733 mmHg 83%
    21:00 +16°C° 0 mm 1 mps 733 mmHg 87%
    22:00 +15°C° 0 mm 1 mps 734 mmHg 91%
    23:00 +15°C° 0 mm 1 mps 733 mmHg 90%

    27 May, Monday

    Time Temperature Precipitation Wind Pressure Humidity
    00:00 +15°C° 0 mm 1 mps 733 mmHg 90%
    01:00 +15°C° 0 mm 1 mps 733 mmHg 89%
    02:00 +14°C° 0 mm 1 mps 733 mmHg 89%
    03:00 +14°C° 0 mm 1 mps 733 mmHg 90%
    04:00 +14°C° 0 mm 1 mps 733 mmHg 90%
    05:00 +15°C° 0 mm 1 mps 733 mmHg 86%
    06:00 +18°C° 0 mm 1 mps 733 mmHg 82%
    07:00 +17°C° 0 mm 0 mps 733 mmHg 78%
    08:00 +18°C° 0.2 mm 0 mps 733 mmHg 77%
    09:00 +18°C° 0.2 mm 0 mps 733 mmHg 76%
    10:00 +19°C° 0.2 mm 0 mps 733 mmHg 75%
    11:00 +20°C° 0 mm 0 mps 733 mmHg 69%
    12:00 +22°C° 0 mm 0 mps 732 mmHg 64%
    13:00 +23°C° 0 mm 0 mps 732 mmHg 58%
    14:00 +25°C° 0.2 mm 1 mps 732 mmHg 62%
    15:00 +24°C° 0.2 mm 1 mps 731 mmHg 66%
    16:00 +24°C° 0.2 mm 1 mps 731 mmHg 69%
    17:00 +22°C° 0.7 mm 1 mps 731 mmHg 76%
    18:00 +21°C° 0.7 mm 1 mps 730 mmHg 83%
    19:00 +18°C° 0.7 mm 0 mps 730 mmHg 90%
    20:00 +17°C° 0.8 mm 0 mps 730 mmHg 92%
    21:00 +16°C° 0.8 mm 0 mps 730 mmHg 94%
    22:00 +18°C° 0.8 mm 1 mps 730 mmHg 95%
    23:00 +18°C° 1.7 mm 1 mps 730 mmHg 96%

    28 May, Tuesday

    Time Temperature Precipitation Wind Pressure Humidity
    00:00 +18°C° 1.7 mm 1 mps 729 mmHg 96%
    01:00 +16°C° 1.7 mm 1 mps 729 mmHg 97%
    02:00 +16°C° 1.2 mm 1 mps 729 mmHg 97%
    03:00 +16°C° 1.2 mm 1 mps 728 mmHg 97%
    04:00 +16°C° 1.2 mm 1 mps 728 mmHg 97%
    05:00 +16°C° 0.5 mm 1 mps 728 mmHg 97%
    06:00 +18°C° 0.5 mm 1 mps 728 mmHg 96%
    07:00 +18°C° 0.5 mm 1 mps 728 mmHg 95%
    08:00 +19°C° 0.8 mm 1 mps 727 mmHg 93%
    09:00 +19°C° 0.8 mm 1 mps 727 mmHg 91%
    10:00 +19°C° 0.8 mm 2 mps 727 mmHg 90%
    11:00 +19°C° 0.8 mm 2 mps 727 mmHg 89%
    12:00 +18°C° 0.8 mm 2 mps 727 mmHg 89%
    13:00 +18°C° 0.8 mm 2 mps 726 mmHg 89%
    14:00 +18°C° 0.3 mm 2 mps 726 mmHg 88%
    15:00 +18°C° 0.3 mm 2 mps 726 mmHg 87%
    16:00 +18°C° 0.3 mm 2 mps 726 mmHg 87%
    17:00 +19°C° 0.1 mm 1 mps 727 mmHg 89%
    18:00 +18°C° 0.1 mm 1 mps 727 mmHg 90%
    19:00 +18°C° 0.1 mm 1 mps 727 mmHg 92%
    20:00 +16°C° 0 mm 1 mps 727 mmHg 94%
    21:00 +15°C° 0 mm 1 mps 727 mmHg 95%
    22:00 +14°C° 0 mm 1 mps 728 mmHg 96%
    23:00 +14°C° 0 mm 1 mps 728 mmHg 96%

    29 May, Wednesday

    Time Temperature Precipitation Wind Pressure Humidity
    00:00 +13°C° 0 mm 1 mps 728 mmHg 96%
    01:00 +13°C° 0 mm 1 mps 728 mmHg 97%
    02:00 +12°C° 0 mm 0 mps 728 mmHg 96%
    03:00 +12°C° 0 mm 0 mps 728 mmHg 96%
    04:00 +12°C° 0 mm 0 mps 728 mmHg 96%
    05:00 +13°C° 0 mm 0 mps 728 mmHg 94%
    06:00 +15°C° 0 mm 1 mps 728 mmHg 92%
    07:00 +16°C° 0 mm 1 mps 728 mmHg 90%
    08:00 +16°C° 0.1 mm 1 mps 729 mmHg 90%
    09:00 +16°C° 0.1 mm 1 mps 729 mmHg 90%
    10:00 +18°C° 0.1 mm 1 mps 729 mmHg 90%
    11:00 +17°C° 0.1 mm 2 mps 729 mmHg 87%
    12:00 +17°C° 0.1 mm 2 mps 729 mmHg 84%
    13:00 +18°C° 0.1 mm 2 mps 730 mmHg 80%
    14:00 +18°C° 0 mm 3 mps 730 mmHg 77%
    15:00 +19°C° 0 mm 3 mps 730 mmHg 73%
    16:00 +20°C° 0 mm 3 mps 731 mmHg 70%
    17:00 +18°C° 0 mm 3 mps 731 mmHg 74%
    18:00 +17°C° 0 mm 4 mps 732 mmHg 78%
    19:00 +14°C° 0 mm 4 mps 732 mmHg 83%
    20:00 +14°C° 0 mm 3 mps 733 mmHg 85%
    21:00 +13°C° 0 mm 3 mps 734 mmHg 87%
    22:00 +12°C° 0 mm 3 mps 735 mmHg 89%
    23:00 +12°C° 0 mm 3 mps 735 mmHg 90%
    Show more